TimeMST,TemperatureF,Dew PointF,Humidity,Sea Level PressureIn,VisibilityMPH,Wind Direction,Wind SpeedMPH,Gust SpeedMPH,PrecipitationIn,Events,Conditions,WindDirDegrees,DateUTC
12:53 AM,33.1,24.1,70,30.19,10.0,East,6.9,-,N/A,,Clear,90,2012-11-30 07:53:00
1:53 AM,32.0,23.0,69,30.19,10.0,East,8.1,-,N/A,,Clear,80,2012-11-30 08:53:00
2:53 AM,30.9,23.0,72,30.19,10.0,East,6.9,-,N/A,,Clear,80,2012-11-30 09:53:00
3:53 AM,30.0,23.0,75,30.18,10.0,East,9.2,-,N/A,,Clear,90,2012-11-30 10:53:00
4:53 AM,30.0,23.0,75,30.20,10.0,East,6.9,-,N/A,,Clear,90,2012-11-30 11:53:00
5:53 AM,30.0,23.0,75,30.22,10.0,East,9.2,-,N/A,,Clear,100,2012-11-30 12:53:00
6:53 AM,28.0,21.9,78,30.27,10.0,ESE,4.6,-,N/A,,Clear,110,2012-11-30 13:53:00
7:53 AM,30.9,23.0,72,30.27,10.0,East,6.9,-,N/A,,Clear,100,2012-11-30 14:53:00
8:53 AM,34.0,24.1,67,30.28,10.0,East,4.6,-,N/A,,Clear,100,2012-11-30 15:53:00
9:53 AM,39.9,26.1,58,30.26,10.0,ESE,6.9,-,N/A,,Clear,120,2012-11-30 16:53:00
10:53 AM,48.0,27.0,44,30.22,10.0,East,6.9,-,N/A,,Clear,100,2012-11-30 17:53:00
11:53 AM,51.1,28.0,41,30.18,10.0,ESE,5.8,-,N/A,,Clear,120,2012-11-30 18:53:00
12:53 PM,54.0,28.0,37,30.14,10.0,ESE,4.6,-,N/A,,Clear,120,2012-11-30 19:53:00
1:53 PM,55.0,26.1,33,30.12,10.0,Calm,Calm,-,N/A,,Clear,0,2012-11-30 20:53:00
2:53 PM,55.9,24.1,29,30.10,10.0,Calm,Calm,-,N/A,,Clear,0,2012-11-30 21:53:00
3:53 PM,55.0,25.0,31,30.11,10.0,Calm,Calm,-,N/A,,Clear,0,2012-11-30 22:53:00
4:53 PM,51.1,25.0,36,30.12,10.0,East,3.5,-,N/A,,Clear,90,2012-11-30 23:53:00
5:53 PM,48.0,25.0,41,30.15,10.0,Calm,Calm,-,N/A,,Clear,0,2012-12-01 00:53:00
6:53 PM,44.1,24.1,45,30.17,10.0,ENE,3.5,-,N/A,,Clear,70,2012-12-01 01:53:00
7:53 PM,42.1,24.1,49,30.17,10.0,NNE,4.6,-,N/A,,Clear,30,2012-12-01 02:53:00
8:53 PM,43.0,24.1,47,30.15,10.0,NE,5.8,-,N/A,,Clear,50,2012-12-01 03:53:00
9:53 PM,43.0,24.1,47,30.14,10.0,ENE,5.8,-,N/A,,Clear,60,2012-12-01 04:53:00
10:53 PM,39.9,24.1,53,30.13,10.0,East,8.1,-,N/A,,Clear,90,2012-12-01 05:53:00
11:53 PM,39.0,24.1,55,30.10,10.0,ESE,6.9,-,N/A,,Clear,110,2012-12-01 06:53:00